Weather History for Galesburg, IL

Change the Weather History Date:

Sunday, March 31, 2013

  Actual Average Record
Temperature  
Mean Temperature 47 °F -  
Max Temperature 59 °F 55 °F 82 °F (1986)
Min Temperature 35 °F 34 °F 12 °F (1969)
Degree Days  
Heating Degree Days 18    
Moisture  
Dew Point 37 °F    
Average Humidity 70    
Maximum Humidity 99    
Minimum Humidity 35    
Precipitation  
Precipitation 0.00 in - - ()
Sea Level Pressure  
Sea Level Pressure 29.87 in    
Wind  
Wind Speed 12 mph (WNW)    
Max Wind Speed 24 mph    
Max Gust Speed 45 mph    
Visibility 8 miles    
Events Fog    
Averages and records for this station are not official NWS values.
T = Trace of Precipitation, MM = Missing Value Source: NWS Daily Summary

Daily Weather History Graph

Daily Weather History Graph

Search for Another Location

Airport:

Trip Planner

Search our weather history database for the weather conditions in past years. The results will help you decide how hot, cold, wet, or windy it might be!

Date:

Astronomy

Mar. 31, 2013 Rise Set
Actual Time 6:46 AM CDT 7:25 PM CDT
Civil Twilight 6:18 AM CDT 7:53 PM CDT
Nautical Twilight 5:45 AM CDT 8:26 PM CDT
Astronomical Twilight 5:12 AM CDT 9:00 PM CDT
Moon No Moon Rise 9:32 AM CDT (3/31)
Length of Visible Light 13h 34m
Length of Day
12h 39m
Waning Gibbous, 77% of the Moon is Illuminated
Mar 31
Waning Gibbous
Apr 2
Last Quarter
Apr 10
New
Apr 18
First Quarter
Apr 25
Full

Hourly Weather History & Observations

Time (CDT) Temp. Windchill Dew Point Humidity Pressure Visibility Wind Dir Wind Speed Gust Speed Precip Events Conditions
12:15 AM 45.7 °F 42.0 °F 43.9 °F 93% 29.88 in 7.0 mi SW 6.9 mph - N/A   Overcast
12:35 AM 45.9 °F 41.7 °F 44.1 °F 93% 29.88 in 7.0 mi WSW 8.1 mph - N/A   Overcast
12:55 AM 45.7 °F 41.5 °F 43.9 °F 93% 29.88 in 7.0 mi WSW 8.1 mph - N/A   Overcast
1:15 AM 45.1 °F 40.3 °F 43.5 °F 94% 29.86 in 7.0 mi WSW 9.2 mph - N/A   Mostly Cloudy
1:35 AM 45.7 °F 41.5 °F 43.9 °F 93% 29.87 in 7.0 mi WSW 8.1 mph - N/A   Overcast
1:55 AM 45.9 °F 42.9 °F 44.1 °F 93% 29.86 in 7.0 mi WSW 5.8 mph - N/A   Overcast
2:15 AM 45.9 °F 41.2 °F 44.2 °F 94% 29.86 in 7.0 mi West 9.2 mph - N/A   Overcast
2:35 AM 45.9 °F 40.8 °F 44.6 °F 95% 29.86 in 7.0 mi West 10.4 mph - N/A   Overcast
2:55 AM 45.7 °F 41.5 °F 44.6 °F 96% 29.85 in 5.0 mi West 8.1 mph - N/A   Overcast
3:15 AM 45.7 °F 40.2 °F 44.4 °F 95% 29.86 in 5.0 mi West 11.5 mph - N/A   Overcast
3:35 AM 45.3 °F 41.1 °F 44.1 °F 95% 29.85 in 5.0 mi WNW 8.1 mph - N/A   Overcast
3:55 AM 45.0 °F 40.6 °F 43.9 °F 96% 29.85 in 4.0 mi West 8.1 mph - N/A   Overcast
4:15 AM 45.0 °F 40.6 °F 44.1 °F 97% 29.86 in 4.0 mi West 8.1 mph - N/A   Overcast
4:35 AM 45.0 °F 40.1 °F 44.1 °F 97% 29.85 in 4.0 mi West 9.2 mph - N/A   Overcast
4:55 AM 45.0 °F 39.7 °F 44.1 °F 97% 29.85 in 4.0 mi West 10.4 mph - N/A   Overcast
5:15 AM 45.1 °F 39.9 °F 44.6 °F 98% 29.86 in 1.0 mi West 10.4 mph - N/A   Overcast
5:35 AM 45.0 °F 40.1 °F 44.6 °F 99% 29.85 in 0.5 mi WNW 9.2 mph - N/A Fog Fog
5:55 AM 45.0 °F 41.8 °F 44.6 °F 99% 29.84 in 0.2 mi WNW 5.8 mph - N/A Fog Fog
6:15 AM 44.8 °F 41.6 °F 44.6 °F 99% 29.84 in 0.2 mi WNW 5.8 mph - N/A Fog Fog
6:35 AM 44.8 °F 39.4 °F 44.6 °F 99% 29.85 in 0.5 mi WNW 10.4 mph - N/A Fog Fog
6:55 AM 44.6 °F 38.8 °F 44.1 °F 98% 29.85 in 4.0 mi West 11.5 mph - N/A   Overcast
7:15 AM 44.6 °F 39.7 °F 43.7 °F 97% 29.86 in 4.0 mi WNW 9.2 mph - N/A   Overcast
7:35 AM 44.8 °F 39.9 °F 43.9 °F 97% 29.86 in 3.0 mi West 9.2 mph - N/A   Overcast
7:55 AM 45.0 °F 40.6 °F 43.7 °F 95% 29.86 in 4.0 mi WNW 8.1 mph - N/A   Overcast
8:15 AM 45.5 °F 40.3 °F 44.1 °F 95% 29.86 in 4.0 mi West 10.4 mph - N/A   Overcast
8:35 AM 45.7 °F 41.5 °F 43.9 °F 93% 29.86 in 5.0 mi West 8.1 mph - N/A   Overcast
8:55 AM 46.4 °F 41.5 °F 45.1 °F 95% 29.86 in 5.0 mi West 10.4 mph - N/A   Overcast
9:15 AM 47.3 °F - 43.3 °F 86% 29.86 in 7.0 mi West 12.7 mph - N/A   Overcast
9:35 AM 47.7 °F - 43.3 °F 85% 29.86 in 7.0 mi West 15.0 mph - N/A   Overcast
9:55 AM 48.7 °F - 43.0 °F 80% 29.86 in 10.0 mi West 11.5 mph - N/A   Mostly Cloudy
10:15 AM 50.9 °F - 43.7 °F 76% 29.85 in 10.0 mi West 12.7 mph - N/A   Scattered Clouds
10:35 AM 52.0 °F - 43.0 °F 71% 29.84 in 10.0 mi WSW 10.4 mph - N/A   Scattered Clouds
10:55 AM 52.9 °F - 41.9 °F 66% 29.84 in 10.0 mi West 12.7 mph - N/A   Scattered Clouds
11:15 AM 53.6 °F - 40.5 °F 61% 29.83 in 10.0 mi West 16.1 mph 20.7 mph N/A   Clear
11:35 AM 55.8 °F - 40.6 °F 57% 29.84 in 10.0 mi West 19.6 mph 23.0 mph N/A   Scattered Clouds
11:55 AM 55.8 °F - 39.7 °F 55% 29.83 in 10.0 mi WNW 15.0 mph - N/A   Scattered Clouds
12:15 PM 57.0 °F - 39.2 °F 51% 29.83 in 10.0 mi West 17.3 mph 25.3 mph N/A   Mostly Cloudy
12:35 PM 57.4 °F - 38.3 °F 49% 29.82 in 10.0 mi West 20.7 mph 25.3 mph N/A   Scattered Clouds
12:55 PM 57.0 °F - 36.7 °F 47% 29.82 in 10.0 mi West 17.3 mph 28.8 mph N/A   Scattered Clouds
1:15 PM 55.9 °F - 36.9 °F 49% 29.83 in 10.0 mi West 19.6 mph 28.8 mph N/A   Mostly Cloudy
1:35 PM 57.0 °F - 37.6 °F 48% 29.82 in 10.0 mi West 18.4 mph 27.6 mph N/A   Scattered Clouds
1:55 PM 57.2 °F - 36.1 °F 45% 29.82 in 10.0 mi West 24.2 mph - N/A   Scattered Clouds
2:15 PM 57.9 °F - 35.4 °F 43% 29.81 in 10.0 mi WNW 19.6 mph 28.8 mph N/A   Scattered Clouds
2:35 PM 58.1 °F - 35.4 °F 43% 29.82 in 10.0 mi WNW 18.4 mph 44.9 mph N/A   Overcast
2:55 PM 56.8 °F - 30.2 °F 36% 29.82 in 10.0 mi WNW 21.9 mph 32.2 mph N/A   Mostly Cloudy
3:15 PM 57.4 °F - 30.7 °F 36% 29.82 in 10.0 mi WNW 23.0 mph 35.7 mph N/A   Scattered Clouds
3:35 PM 55.6 °F - 31.8 °F 41% 29.83 in 10.0 mi WNW 21.9 mph 28.8 mph N/A   Clear
3:55 PM 55.4 °F - 29.5 °F 37% 29.83 in 10.0 mi WNW 23.0 mph 33.4 mph N/A   Clear
4:15 PM 55.4 °F - 28.0 °F 35% 29.84 in 10.0 mi West 19.6 mph 29.9 mph N/A   Clear
4:35 PM 55.0 °F - 29.8 °F 38% 29.84 in 10.0 mi WNW 23.0 mph 31.1 mph N/A   Scattered Clouds
4:55 PM 55.2 °F - 29.7 °F 38% 29.84 in 10.0 mi WNW 19.6 mph 29.9 mph N/A   Scattered Clouds
5:15 PM 53.8 °F - 26.8 °F 35% 29.84 in 10.0 mi West 21.9 mph 31.1 mph N/A   Scattered Clouds
5:35 PM 53.8 °F - 26.2 °F 35% 29.85 in 10.0 mi West 19.6 mph 29.9 mph N/A   Clear
5:55 PM 52.7 °F - 27.1 °F 37% 29.86 in 10.0 mi West 21.9 mph 27.6 mph N/A   Clear
6:15 PM 51.4 °F - 26.1 °F 37% 29.86 in 10.0 mi WNW 19.6 mph 28.8 mph N/A   Clear
6:35 PM 49.3 °F - 26.4 °F 41% 29.87 in 10.0 mi WNW 16.1 mph 26.5 mph N/A   Clear
6:55 PM 46.9 °F - 28.4 °F 49% 29.88 in 10.0 mi NW 13.8 mph 21.9 mph N/A   Clear
7:15 PM 45.0 °F 37.9 °F 29.3 °F 54% 29.89 in 10.0 mi WNW 16.1 mph - N/A   Clear
7:35 PM 43.7 °F 36.6 °F 29.3 °F 57% 29.90 in 10.0 mi WNW 15.0 mph 19.6 mph N/A   Clear
7:55 PM 42.8 °F 35.4 °F 29.3 °F 59% 29.91 in 10.0 mi WNW 15.0 mph 23.0 mph N/A   Clear
8:15 PM 41.5 °F 35.0 °F 29.5 °F 62% 29.91 in 10.0 mi NW 11.5 mph 17.3 mph N/A   Clear
8:35 PM 41.2 °F 33.7 °F 28.6 °F 61% 29.92 in 10.0 mi WNW 13.8 mph - N/A   Clear
8:55 PM 40.5 °F 33.6 °F 28.9 °F 64% 29.93 in 10.0 mi NW 11.5 mph - N/A   Clear
9:15 PM 40.5 °F 33.2 °F 28.9 °F 64% 29.93 in 10.0 mi WNW 12.7 mph 18.4 mph N/A   Scattered Clouds
9:35 PM 39.9 °F 32.5 °F 28.4 °F 63% 29.94 in 10.0 mi WNW 12.7 mph 17.3 mph N/A   Scattered Clouds
9:55 PM 38.8 °F 32.1 °F 28.4 °F 66% 29.94 in 10.0 mi NW 10.4 mph - N/A   Scattered Clouds
10:15 PM 38.3 °F 30.9 °F 27.5 °F 65% 29.95 in 10.0 mi WNW 11.5 mph 17.3 mph N/A   Clear
10:35 PM 37.8 °F 28.6 °F 26.6 °F 64% 29.96 in 10.0 mi WNW 16.1 mph 21.9 mph N/A   Clear
10:55 PM 37.4 °F 28.9 °F 26.6 °F 65% 29.96 in 10.0 mi WNW 13.8 mph 20.7 mph N/A   Scattered Clouds
11:15 PM 36.5 °F 28.7 °F 26.4 °F 67% 29.96 in 10.0 mi WNW 11.5 mph - N/A   Scattered Clouds
11:35 PM 36.0 °F 29.6 °F 26.6 °F 69% 29.97 in 10.0 mi NW 8.1 mph - N/A   Clear
11:55 PM 35.6 °F 28.6 °F 26.6 °F 70% 29.98 in 10.0 mi NW 9.2 mph - N/A   Mostly Cloudy